Главная страница
METAR-TAF:

METAR-TAF

Аэропорты :

Morristown, Нью-Джерси, США

широта: 40-48N, долгота: 074-25W, высота над уровнем моря: 57 м

Текущие метеонаблюдения

Эта сводка был подготовлена 56 минут назад, в 17:45 UTC
Ветер 9 Узел от южный
Температура 22°C
Влажность 78%
Давление 1012 hPa
Видимость: 16.1 км
Сплошная облачность на высоте 4500 фута

METAR: KMMU 121745Z 18009KT 10SM OVC045 22/18 A2989

Время: 14:41 (18:41 UTC)


TAF: отсутствует

Метеонаблюдения и прогнозы для более 4000 аэропортов (сводки METAR и TAF).

Имеющиеся станции представлены на карте желтыми и красными точками.

Чтобы увидеть название станции, наведите на нее мышь.

Затем щелкните, чтобы увидеть метеонаблюдения и метеопрогнозы.

Управление картой: чтобы увеличить масштаб, щелкните зеленые кнопки с черным крестиком; чтобы уменьшить масштаб, щелкните зеленую кнопку с тире; для просмотра соседних карт щелкайте зеленые стрелки.


METAR-TAF: